Flag for Finland Weather past 2 weeks in Lahti, Finland

Now
63 °F

Clear.


Feels Like: 63 °F
Forecast: 60 / 80 °F
Wind: 3 mph from Southwest

Location: Utti

Current Time: Aug 1, 2014 at 3:22:10 AM

Latest Report: Aug 1, 2014 at 2:50 AM


Visibility: 10 mi

Pressure: 29.77 "Hg

Humidity: 94%

Dew point: 61 °F

Location of LahtiLocation

Historic Weather in Lahti — Graph

°F

Lahti temperature yesterday

Maximum temperature yesterday: 86 °F (at 1:50 PM)
Minimum temperature yesterday: 68 °F (at 5:20 AM)
Average temperature yesterday: 75 °F

Past Weeks' High & Low Weather Summary

 TemperatureHumidityPressure
High88 °F (Jul 26, 3:20 PM)100% (Jul 17, 3:20 AM)30.24 "Hg (Jul 17, 3:20 AM)
Low54 °F (Jul 17, 3:20 AM)25% (Jul 27, 2:20 PM)29.65 "Hg (Jul 31, 2:50 PM)
Average72 °F63%30.05 "Hg
* Reported Jul 17 1:20 AM — Aug 1 1:50 AM, Lahti, Weather by CustomWeather, © 2014

Note: Actual official high and low records may vary slightly from our data, if they occured in-between our weather recording intervals... More about our weather records

Advertising

Lahti weather history for previous 24 hours

 ConditionsComfort  
Time TempWeatherWind HumidityBarometerVisibility
1:50 AM
Aug 1
64 °FPassing clouds.5 mph88%29.74 "HgN/A
1:20 AM64 °FClear.8 mph94%29.74 "Hg10 mi
12:50 AM66 °FClear.8 mph88%29.74 "Hg10 mi
12:20 AM66 °FClear.9 mph88%29.74 "Hg10 mi
11:50 PM
Jul 31
68 °FPassing clouds.8 mph88%29.74 "HgN/A
11:20 PM68 °FPassing clouds.6 mph94%29.71 "HgN/A
10:50 PM68 °FPartly sunny.7 mph94%29.71 "HgN/A
10:20 PM68 °FPartly sunny.8 mph94%29.71 "HgN/A
9:50 PM68 °FPartly sunny.8 mph94%29.71 "HgN/A
9:20 PM68 °FBroken clouds.8 mph94%29.71 "HgN/A
8:50 PM68 °FScattered clouds.8 mph88%29.68 "HgN/A
8:20 PM70 °FSprinkles. Passing clouds.8 mph83%29.68 "HgN/A
7:50 PM72 °FSprinkles. Passing clouds.14 mph73%29.68 "HgN/A
7:20 PM73 °FPassing clouds.13 mph65%29.68 "HgN/A
6:50 PM75 °FPassing clouds.14 mph61%29.68 "HgN/A
6:20 PM77 °FPassing clouds.12 mph61%29.68 "HgN/A
5:50 PM73 °FPassing clouds.8 mph65%29.68 "HgN/A
5:20 PM72 °FSunny.10 mph65%29.68 "Hg10 mi
4:50 PM82 °FSunny.17 mph42%29.65 "Hg10 mi
4:20 PM86 °FPassing clouds.17 mph33%29.65 "HgN/A
3:50 PM86 °FPassing clouds.17 mph33%29.65 "HgN/A
3:20 PM86 °FPassing clouds.21 mph33%29.65 "HgN/A
2:50 PM86 °FPassing clouds.18 mph35%29.65 "HgN/A
2:20 PM84 °FPassing clouds.16 mph33%29.68 "HgN/A
1:50 PM86 °FPassing clouds.18 mph31%29.68 "HgN/A
1:20 PM84 °FPassing clouds.15 mph37%29.68 "HgN/A
12:50 PM84 °FPassing clouds.15 mph37%29.68 "HgN/A
12:20 PM84 °FPassing clouds.13 mph40%29.71 "HgN/A
10:20 AM81 °FPassing clouds.10 mph54%29.71 "HgN/A
9:50 AM81 °FPassing clouds.9 mph58%29.71 "HgN/A
9:20 AM79 °FPassing clouds.8 mph61%29.74 "HgN/A
8:50 AM77 °FSunny.7 mph69%29.74 "Hg10 mi
8:20 AM75 °FSunny.7 mph74%29.74 "Hg10 mi
7:50 AM75 °FSunny.7 mph78%29.74 "Hg10 mi
7:20 AM73 °FSunny.8 mph83%29.74 "Hg10 mi
6:50 AM72 °FSunny.7 mph83%29.74 "Hg10 mi
6:20 AM70 °FSunny.6 mph88%29.74 "Hg10 mi
5:50 AM68 °FSunny.7 mph88%29.74 "Hg10 mi
5:20 AM68 °FClear.N/A88%29.77 "Hg10 mi
4:50 AM70 °FClear.N/A78%29.77 "Hg10 mi
4:20 AM70 °FClear.N/A78%29.77 "Hg10 mi
3:50 AM72 °FSprinkles. Passing clouds.N/A78%29.77 "HgN/A
3:20 AM72 °FSprinkles. Overcast.N/A88%29.77 "HgN/A
Weather by CustomWeather, © 2014

See weather overviewHow to use our weather pages